User: anonymous   Login
Location: Champs
(48.8539°N, 2.6040°E)
Time: 11:44:28
(UTC+00:00)
Language:

ATLAS CENTAUR R/B - Orbit

View from above orbital plane
View from above orbital plane
View from above satellite
View from above satellite

Ground track
Ground track

The orbit data is extracted from the following two-line orbital elements,

1 38770U 12048N   22243.81169953 0.00001900  00000-0  10766-3 0    01
2 38770  64.6487 136.1483 0171467 246.0393 113.9607 15.01030042    04
Epoch (UTC): 31 August 2022 19:28:50
Eccentricity: 0.0171467
inclination: 64.6487°
perigee height: 444 km
apogee height: 683 km
right ascension of ascending node: 136.1483°
argument of perigee: 246.0393°
revolutions per day: 15.01030042
mean anomaly at epoch: 113.9607°
orbit number at epoch: 0

The dashed part of the orbit path shows where the satellite is in the earth's shadow,  

DLR